Total_Precipitation_Accumulation
0.00 0.00 0.00 0.00 0.00 0.00 0.00 0.00 0.00 0.00 0.00 0.00 0.00 0.00 0.01 0.00 0.00 0.00 0.00 0.00 0.00 0.00 0.00 0.00 0.01 0.01 0.01 0.01 0.01 0.05 0.05 0.71 0.93 1.31 1.69 1.56 0.74 0.48 0.95 0.39 0.72 0.67 0.62 0.63 0.71 0.79 1.12 1.17 1.17 0.79 0.58 0.63 0.68 1.36 2.21 2.56 2.46 1.94 2.46 2.61 2.21 2.37 2.64 1.95 1.69 1.23 1.29 0.89 0.83 0.68 0.53 0.54 0.70 0.58 0.39 0.42 1.33 0.47 0.74 1.08 0.97 0.78 1.15 2.15 1.25 1.15
0.00 0.00 0.00 0.01 0.00 0.00 0.00 0.00 0.00 0.00 0.00 0.00 0.00 0.00 0.00 0.00 0.00 0.00 0.00 0.00 0.00 0.00 0.00 0.00 0.02 0.01 0.03 0.03 0.03 0.04 0.02 0.08 0.25 0.48 0.27 0.72 0.42 0.83 0.78 0.60 0.36 0.96 1.27 0.90 0.49 0.60 0.64 0.80 0.74 0.97 0.79 0.83 0.77 1.82 3.30 2.97 3.23 2.72 2.52 3.06 2.50 2.60 2.67 2.04 1.94 1.32 1.57 1.04 0.82 0.81 0.76 0.55 0.59 0.70 0.61 0.59 0.48 0.63 1.11 1.20 0.60 1.17 1.04 1.32 1.19 0.83
0.00 0.00 0.00 0.00 0.00 0.00 0.00 0.00 0.00 0.00 0.00 0.00 0.00 0.00 0.00 0.00 0.00 0.00 0.00 0.00 0.00 0.00 0.00 0.00 0.01 0.02 0.03 0.03 0.05 0.03 0.02 0.07 0.05 0.05 0.09 0.20 0.35 0.39 0.32 0.40 0.94 1.19 0.73 0.58 0.32 0.38 0.73 0.63 0.71 1.00 1.15 1.27 1.78 2.67 2.11 2.42 3.03 3.15 2.77 3.30 3.05 3.47 2.71 1.53 1.24 1.25 1.11 0.87 1.13 1.37 1.09 0.66 0.67 0.63 0.57 0.59 0.76 0.85 1.18 1.33 1.00 1.03 0.70 0.95 1.00 0.80
0.00 0.00 0.00 0.00 0.00 0.00 0.00 0.00 0.00 0.00 0.00 0.00 0.00 0.00 0.00 0.00 0.00 0.03 0.00 0.00 0.00 0.00 0.00 0.00 0.04 0.02 0.05 0.05 0.04 0.11 0.08 0.10 0.09 0.11 0.23 0.34 0.52 0.23 0.47 0.48 0.63 0.61 0.34 1.13 0.77 0.49 0.57 0.92 1.42 0.90 1.46 1.39 2.28 3.28 2.76 2.17 2.48 2.69 2.99 3.04 2.14 3.02 1.77 1.46 1.21 1.19 1.17 0.64 0.98 1.01 1.07 1.33 0.65 0.59 1.02 1.02 0.91 0.91 0.56 1.04 0.92 0.77 0.44 0.47 0.62 0.58
0.00 0.00 0.00 0.00 0.00 0.00 0.00 0.00 0.00 0.00 0.00 0.00 0.00 0.00 0.00 0.00 0.00 0.00 0.08 0.00 0.00 0.00 0.00 0.01 0.03 0.08 0.04 0.08 0.11 0.14 0.36 0.75 1.01 0.85 0.44 0.34 0.37 0.98 1.22 1.18 0.62 0.70 0.47 0.80 0.96 1.07 1.24 1.64 2.01 1.97 2.04 2.92 3.34 2.74 2.59 2.54 2.46 2.43 2.49 2.90 1.88 2.37 2.06 1.24 1.46 1.35 1.20 1.23 1.38 1.14 1.07 1.27 1.21 1.15 0.76 0.85 0.68 0.61 0.91 0.59 0.79 0.88 0.26 0.42 0.73 0.65
0.00 0.01 0.00 0.00 0.00 0.00 0.00 0.00 0.00 0.00 0.00 0.00 0.00 0.00 0.00 0.00 0.00 0.00 0.00 0.00 0.00 0.02 0.00 0.00 0.03 0.12 0.15 0.08 0.11 0.14 0.20 1.00 1.73 1.21 0.31 0.69 0.84 1.15 1.47 1.05 1.74 1.44 0.39 0.79 0.75 0.54 0.42 0.69 0.91 2.20 3.75 2.77 2.26 1.95 3.36 2.90 3.65 3.25 3.14 1.96 1.92 2.71 2.42 1.56 1.35 1.06 1.41 1.03 0.77 0.71 0.64 0.64 0.54 0.58 0.54 0.63 0.48 0.58 0.35 0.56 0.54 0.49 0.51 0.68 0.69 0.84
0.00 0.00 0.00 0.00 0.00 0.00 0.00 0.00 0.00 0.00 0.00 0.00 0.01 0.00 0.00 0.00 0.00 0.00 0.00 0.00 0.00 0.03 0.08 0.00 0.03 0.18 0.12 0.31 0.30 0.26 0.22 0.28 0.39 0.67 0.28 0.19 0.72 0.95 0.95 0.80 1.07 1.05 0.65 0.42 0.80 0.82 0.61 1.09 1.46 2.91 2.53 1.93 1.85 2.14 1.43 2.72 3.89 3.99 3.61 1.92 1.50 1.83 2.07 1.52 1.42 1.80 1.84 1.29 0.72 0.64 0.68 0.50 0.43 0.44 0.40 0.31 0.40 0.40 0.47 0.59 0.78 1.16 1.09 1.09 0.75 0.58
0.00 0.00 0.00 0.00 0.00 0.00 0.00 0.00 0.00 0.00 0.00 0.01 0.01 0.00 0.00 0.00 0.00 0.00 0.01 0.00 0.02 0.00 0.00 0.00 0.00 0.15 0.12 0.23 0.25 0.33 0.19 0.43 0.40 0.24 0.61 0.97 0.70 1.33 1.20 0.87 0.85 0.52 0.58 0.53 0.86 1.08 1.05 1.18 1.64 1.98 1.99 1.83 1.89 2.30 1.90 4.00 4.05 1.93 1.59 1.51 1.23 1.57 1.61 1.38 1.37 1.67 0.87 1.00 0.91 0.68 0.71 1.13 0.72 0.49 0.49 0.53 0.36 0.55 1.44 1.14 0.71 1.01 1.03 0.75 0.61 0.50
0.00 0.00 0.00 0.00 0.00 0.00 0.00 0.00 0.00 0.00 0.00 0.01 0.00 0.00 0.00 0.00 0.00 0.00 0.00 0.01 0.03 0.01 0.11 0.01 0.00 0.03 0.08 0.24 0.72 0.63 0.40 0.84 0.66 0.41 0.64 0.47 0.48 1.14 0.78 0.63 0.70 0.53 0.40 0.86 1.06 1.12 1.20 1.88 1.66 1.25 1.24 1.14 1.36 1.85 2.44 2.31 2.85 2.73 2.17 1.02 1.16 2.22 1.61 1.18 0.62 0.70 1.00 0.91 0.99 0.71 0.97 0.91 0.65 0.49 0.64 0.83 1.29 0.86 1.31 0.49 0.52 0.52 0.59 0.69 0.70 1.01
0.00 0.00 0.00 0.00 0.00 0.00 0.00 0.00 0.00 0.00 0.00 0.00 0.00 0.00 0.00 0.00 0.00 0.00 0.01 0.01 0.06 0.01 0.03 0.05 0.08 0.02 0.10 0.25 0.56 0.99 0.39 0.60 0.88 0.89 0.28 0.24 0.24 0.40 0.47 0.53 0.45 0.65 0.60 0.35 0.98 0.42 1.14 1.62 2.52 2.04 1.94 1.55 2.15 1.87 2.19 2.64 4.11 2.62 1.65 2.17 1.86 1.93 1.20 1.17 0.66 0.93 1.63 1.44 1.06 1.12 0.57 0.55 0.65 0.85 0.69 0.51 0.29 0.42 0.34 0.65 0.62 0.68 0.97 0.82 0.80 0.73
0.00 0.00 0.00 0.00 0.00 0.00 0.00 0.00 0.00 0.00 0.00 0.00 0.00 0.00 0.00 0.00 0.01 0.01 0.01 0.06 0.06 0.00 0.01 0.02 0.03 0.01 0.13 0.20 0.16 0.53 0.22 0.16 0.11 0.31 0.29 0.34 1.06 0.79 0.76 0.65 0.41 0.46 0.57 0.54 0.98 1.10 0.74 1.14 1.29 1.46 1.37 1.85 2.00 2.50 2.37 3.08 3.59 1.75 1.42 2.36 2.78 2.71 2.26 1.46 2.41 2.10 2.13 1.08 1.23 0.64 0.49 0.53 0.35 0.32 0.35 0.88 0.46 0.37 1.08 0.73 0.67 1.35 1.34 1.41 0.94 0.89
0.00 0.00 0.00 0.00 0.00 0.00 0.00 0.00 0.00 0.00 0.00 0.00 0.00 0.02 0.00 0.02 0.00 0.01 0.04 0.02 0.07 0.01 0.04 0.02 0.01 0.02 0.09 0.20 0.14 0.11 0.09 0.06 0.09 0.15 0.16 0.29 0.27 0.48 0.78 0.34 0.35 0.51 0.63 0.75 0.73 0.86 1.12 2.03 1.96 2.12 2.60 2.76 3.14 2.38 1.93 1.59 1.53 1.45 0.96 1.87 2.05 3.33 2.44 2.82 3.25 2.28 1.83 1.41 0.93 1.07 0.72 0.43 0.26 0.29 0.25 0.55 0.39 0.37 0.53 0.17 0.35 0.88 2.22 1.68 1.51 0.75
0.01 0.00 0.00 0.00 0.00 0.00 0.00 0.00 0.00 0.00 0.00 0.00 0.00 0.02 0.22 0.22 0.01 0.05 0.05 0.01 0.00 0.01 0.04 0.01 0.03 0.05 0.02 0.29 0.14 0.23 0.22 0.12 0.07 0.11 0.19 0.26 0.38 0.33 0.63 0.39 0.53 0.52 0.92 0.88 1.43 3.22 2.36 1.86 1.43 1.06 1.23 1.27 1.26 1.73 1.69 1.49 1.12 0.69 0.97 1.19 2.54 3.70 2.89 2.85 2.22 1.78 1.52 0.83 0.78 0.85 0.49 0.35 0.13 0.32 0.56 0.99 0.33 0.49 0.39 0.48 0.76 0.71 0.99 1.02 0.67 0.83
0.01 0.00 0.00 0.00 0.00 0.00 0.00 0.00 0.01 0.01 0.00 0.00 0.01 0.11 0.06 0.13 0.07 0.02 0.06 0.03 0.08 0.02 0.01 0.05 0.04 0.10 0.28 0.43 0.10 0.30 0.20 0.11 0.12 0.13 0.49 0.80 0.66 0.27 0.55 0.55 0.82 1.48 1.78 1.93 4.32 2.99 2.77 2.05 0.87 1.27 1.32 1.74 1.98 1.78 1.32 1.03 0.66 1.07 1.98 2.84 2.89 3.54 2.04 1.98 2.29 1.01 1.02 0.85 0.66 0.61 0.37 0.19 0.19 0.37 0.42 0.60 0.44 0.48 0.62 0.77 0.96 0.79 0.64 0.88 0.70 0.79
0.01 0.08 0.00 0.00 0.00 0.00 0.00 0.00 0.00 0.05 0.01 0.01 0.00 0.01 0.11 0.16 0.08 0.02 0.04 0.08 0.02 0.16 0.03 0.01 0.00 0.05 0.09 1.08 0.33 0.23 0.12 0.07 0.07 0.17 0.22 0.25 0.50 0.84 0.62 0.66 1.13 2.91 3.17 3.66 2.07 1.02 0.71 0.71 0.88 0.87 1.23 1.23 0.74 0.66 0.74 0.55 0.54 0.69 2.40 2.76 3.46 5.13 2.53 2.93 1.57 1.12 1.01 1.05 0.88 0.90 0.73 0.61 0.36 0.43 0.23 0.28 0.25 0.38 0.75 1.14 0.94 0.90 0.88 0.63 0.69 0.85
0.00 0.07 0.06 0.00 0.00 0.00 0.00 0.00 0.00 0.00 0.03 0.00 0.00 0.01 0.04 0.02 0.01 0.10 0.34 0.04 0.21 0.12 0.02 0.03 0.06 0.51 0.89 1.17 0.49 0.17 0.10 0.09 0.10 0.27 0.31 0.43 0.39 0.49 1.35 2.00 2.27 2.04 2.01 1.39 0.92 0.46 0.60 0.72 0.49 0.28 0.50 0.33 0.59 0.75 1.04 0.88 1.48 1.99 3.08 2.41 3.01 3.70 2.09 1.81 1.74 1.93 1.64 0.99 0.86 0.85 0.29 0.28 0.41 0.21 0.75 0.47 0.53 0.21 0.41 0.57 0.49 0.35 0.51 0.47 0.65 0.59
0.00 0.13 0.01 0.00 0.00 0.00 0.00 0.00 0.00 0.00 0.16 0.17 0.00 0.06 0.03 0.01 0.02 0.02 0.00 0.01 0.00 0.00 0.03 0.02 0.15 0.39 0.39 1.05 0.55 0.41 0.27 0.22 0.11 0.24 0.14 0.44 0.78 0.90 1.64 1.65 1.43 1.33 1.38 1.10 1.57 1.70 1.22 0.67 0.56 0.41 0.79 0.86 0.43 1.02 1.16 1.37 1.69 1.98 1.89 1.78 2.03 3.88 3.33 2.84 2.50 2.48 1.69 1.05 0.70 0.52 0.36 0.33 0.35 0.24 0.51 1.06 0.49 0.10 0.10 0.22 0.43 0.36 0.30 0.51 0.70 0.32
0.06 0.28 0.01 0.01 0.00 0.00 0.00 0.00 0.00 0.00 0.00 0.00 0.04 0.04 0.00 0.00 0.02 0.04 0.14 0.06 0.00 0.00 0.05 0.02 0.08 0.38 0.10 0.76 0.83 0.55 0.66 0.36 0.32 0.29 0.25 0.35 0.68 0.92 1.33 0.88 0.67 1.35 1.25 1.12 1.53 1.78 1.86 1.24 1.41 1.54 1.15 0.76 0.80 1.42 1.32 1.09 1.54 1.21 1.32 1.31 2.41 4.46 2.14 3.49 2.90 1.85 1.26 1.16 0.88 0.60 0.45 0.45 0.72 0.60 0.66 0.57 0.22 0.05 0.10 0.10 0.21 0.45 0.13 0.20 0.21 0.25
0.00 0.10 0.03 0.00 0.00 0.00 0.00 0.00 0.00 0.00 0.00 0.00 0.05 0.01 0.03 0.06 0.06 0.02 0.00 0.01 0.03 0.01 0.16 0.11 0.14 0.11 0.18 0.74 0.54 0.60 0.36 0.46 0.44 0.24 0.22 0.34 0.69 1.03 1.21 1.12 0.87 1.11 0.92 0.87 0.83 1.14 1.29 0.74 0.50 0.51 0.67 0.86 0.95 0.80 0.51 0.60 0.54 0.44 0.89 1.41 2.18 2.95 2.92 2.54 1.45 1.11 0.77 0.59 0.90 0.63 0.53 0.68 0.60 0.23 0.20 0.25 0.24 0.14 0.14 0.13 0.14 0.20 0.11 0.16 0.45 0.35
0.00 0.03 0.06 0.00 0.00 0.03 0.00 0.00 0.01 0.01 0.00 0.00 0.00 0.01 0.00 0.00 0.10 0.09 0.02 0.29 0.01 0.19 0.02 0.28 0.17 0.19 0.28 0.55 0.18 0.30 0.21 0.32 0.28 0.37 0.36 0.47 0.37 0.45 0.41 0.43 0.50 0.60 0.83 0.97 0.90 0.93 1.37 1.44 1.72 1.51 0.89 0.86 0.68 0.65 0.56 0.45 0.35 0.43 0.87 1.53 1.58 1.46 1.45 1.12 1.24 0.72 0.31 0.74 0.57 0.42 0.48 0.34 0.40 0.28 0.30 0.31 0.44 0.21 0.12 0.07 0.14 0.21 0.28 0.37 0.49 0.54
0.07 0.01 0.14 0.04 0.00 0.00 0.11 0.00 0.01 0.01 0.10 0.01 0.00 0.01 0.00 0.01 0.08 0.01 0.15 0.05 0.10 0.10 0.07 0.15 0.14 0.52 0.65 0.27 0.29 0.22 0.52 0.40 0.29 0.27 0.40 0.54 0.91 0.68 1.15 1.11 0.85 0.43 0.39 0.73 0.86 0.87 0.71 0.62 0.86 0.55 0.71 0.64 0.98 0.59 0.45 0.55 0.71 0.64 0.62 0.51 0.62 0.53 0.29 0.29 0.93 0.80 0.57 0.27 0.90 0.55 0.60 0.94 0.99 0.58 0.45 0.36 0.30 0.26 0.16 0.13 0.08 0.08 0.13 0.32 0.46 0.50
0.02 0.00 0.02 0.13 0.02 0.01 0.02 0.00 0.00 0.00 0.01 0.01 0.01 0.03 0.02 0.08 0.13 0.13 0.08 0.00 0.10 0.03 0.11 0.12 0.25 0.50 0.58 0.19 0.56 0.53 0.36 0.80 0.59 0.61 0.65 0.77 0.63 0.85 0.96 0.68 0.68 1.00 0.80 0.56 0.70 0.60 0.77 1.30 0.82 0.61 0.47 0.47 0.41 0.65 0.53 0.38 0.59 0.55 0.42 0.46 0.62 1.07 0.51 0.41 1.08 1.37 1.14 1.09 1.07 1.10 1.09 1.01 1.21 1.15 0.93 0.57 0.26 0.30 0.15 0.05 0.09 0.17 0.23 0.34 0.60 0.93
0.03 0.03 0.09 0.06 0.09 0.41 0.08 0.03 0.00 0.00 0.00 0.00 0.00 0.02 0.00 0.05 0.02 0.10 0.08 0.16 0.05 0.05 0.05 0.24 0.16 0.65 0.62 0.28 1.11 1.09 0.53 0.50 0.62 0.54 0.48 0.66 0.71 0.77 0.85 0.94 0.47 0.55 0.51 0.39 0.58 0.65 0.76 0.64 0.66 0.22 0.32 0.24 0.09 0.16 0.37 0.23 0.67 0.58 0.51 0.51 0.38 0.34 0.29 0.27 0.35 0.75 1.24 1.59 1.69 1.34 2.50 1.64 1.99 1.16 0.49 0.22 0.23 0.21 0.38 0.60 0.11 0.31 0.24 0.38 1.01 0.50
0.00 0.07 0.02 0.08 0.04 0.05 0.01 0.03 0.04 0.01 0.01 0.00 0.00 0.00 0.01 0.13 0.08 0.09 0.22 0.28 0.17 0.21 0.07 0.13 0.04 0.77 0.32 0.47 0.63 0.88 1.07 1.70 1.19 0.64 0.50 0.40 0.25 0.67 1.09 0.88 0.73 0.27 0.31 0.27 0.42 0.33 0.55 0.86 0.39 0.22 0.22 0.31 0.16 0.30 0.27 0.57 0.80 0.45 0.46 0.53 0.64 0.63 0.61 1.16 1.54 1.09 1.27 1.65 1.57 1.90 1.13 1.38 1.13 0.68 0.74 0.59 0.69 0.65 0.50 0.33 0.13 0.31 0.90 0.91 0.36 0.17
0.21 0.05 0.02 0.24 0.16 0.27 0.16 0.08 0.02 0.00 0.00 0.01 0.08 0.02 0.01 0.02 0.01 0.06 0.09 0.10 0.04 0.09 0.14 0.23 0.36 0.81 0.65 0.41 0.65 0.49 0.98 1.61 1.44 1.16 1.05 0.97 1.17 1.45 1.12 0.65 0.53 0.87 0.63 0.69 0.43 0.32 0.54 0.72 0.31 0.28 0.38 0.38 0.37 0.69 1.01 0.59 0.67 0.28 0.58 0.64 0.76 0.75 0.96 1.54 0.87 0.92 1.69 1.98 1.58 1.57 2.09 1.63 1.57 1.34 0.86 0.84 0.81 0.69 0.42 0.75 0.77 0.70 0.84 0.75 0.49 0.28
0.12 0.33 0.08 0.13 0.35 0.37 0.42 0.39 0.34 0.14 0.11 0.03 0.02 0.03 0.02 0.00 0.19 0.13 0.03 0.04 0.06 0.08 0.08 0.13 0.27 0.54 0.54 0.38 0.40 0.33 0.35 0.44 0.78 1.14 0.78 0.56 0.72 0.80 0.68 0.76 0.59 0.82 0.98 0.82 0.49 1.04 1.30 0.44 0.44 0.55 0.59 0.64 1.01 0.54 0.48 0.67 0.41 0.58 0.81 0.60 0.65 0.89 1.13 0.78 1.61 1.58 1.35 1.80 2.08 2.15 2.44 2.17 1.39 1.47 1.29 2.04 1.20 0.75 1.00 1.27 1.08 0.84 0.76 0.52 0.61 0.41
0.20 0.30 0.34 0.27 0.31 0.52 0.35 0.28 0.18 0.12 0.10 0.09 0.24 0.12 0.12 0.03 0.00 0.07 0.17 0.23 0.12 0.07 0.05 0.22 0.22 0.48 0.58 0.60 0.29 0.31 0.38 0.59 0.44 0.41 0.37 0.62 0.51 0.43 0.43 0.55 0.53 0.82 0.60 0.96 0.69 0.79 0.72 0.93 1.09 1.23 1.53 1.33 0.93 0.91 0.77 0.38 0.35 0.40 0.39 0.44 0.73 1.08 0.82 1.38 1.56 1.01 1.41 1.63 2.08 2.02 2.34 3.31 1.32 1.32 1.56 1.20 0.98 1.03 1.45 1.04 0.98 0.67 0.59 0.75 0.48 0.38
0.21 0.13 0.15 0.50 0.23 0.28 0.20 0.20 0.14 0.05 0.20 0.17 0.18 0.12 0.07 0.08 0.06 0.05 0.02 0.12 0.22 0.12 0.28 0.52 0.34 0.22 0.46 0.35 0.27 0.26 0.26 0.30 0.42 0.45 0.32 0.37 0.32 0.29 0.22 0.24 0.20 0.25 0.49 0.31 0.31 0.45 0.70 1.65 1.84 2.17 1.80 1.63 1.18 0.96 0.80 0.48 0.46 0.36 0.29 0.22 0.60 0.67 0.59 0.88 0.97 0.88 1.12 1.37 1.01 1.50 1.92 1.44 1.70 2.08 2.45 1.53 1.03 1.13 1.03 0.99 0.87 0.55 0.69 0.58 0.44 0.38
0.40 0.22 0.19 0.14 0.34 0.18 0.18 0.09 0.15 0.17 0.11 0.22 0.27 0.32 0.34 0.15 0.17 0.07 0.09 0.09 0.15 0.11 0.46 0.43 0.47 0.28 0.30 0.24 0.25 0.31 0.20 0.26 0.21 0.35 0.44 0.35 0.27 0.30 0.34 0.29 0.22 0.15 0.25 0.28 0.23 0.49 0.56 1.23 1.22 1.05 1.21 0.98 1.30 0.91 0.68 0.82 0.40 0.37 0.19 0.37 0.62 0.56 0.68 0.51 0.87 0.77 1.15 0.97 1.00 0.78 1.42 2.55 2.68 2.31 2.30 2.12 1.18 1.21 1.22 1.07 0.92 0.92 0.76 0.97 1.18 0.78
0.15 0.26 0.36 0.31 0.39 0.55 0.43 0.22 0.18 0.27 0.37 0.13 0.11 0.11 0.15 0.19 0.30 0.25 0.08 0.06 0.17 0.18 0.13 0.18 0.06 0.11 0.36 0.26 0.24 0.32 0.25 0.35 0.37 0.23 0.26 0.30 0.19 0.16 0.32 0.19 0.22 0.17 0.18 0.20 0.59 0.69 0.72 0.81 0.67 1.07 1.15 1.13 0.94 0.78 0.58 0.37 0.50 0.44 0.58 0.42 0.36 0.60 0.60 0.86 0.86 0.90 1.47 1.29 1.16 1.52 1.59 1.92 1.88 2.21 2.15 1.55 1.37 1.63 1.23 1.22 1.31 1.14 0.65 1.26 1.47 0.43
0.12 0.42 0.11 0.31 0.47 0.39 0.49 0.25 0.26 0.35 0.34 0.29 0.15 0.15 0.15 0.15 0.15 0.18 0.23 0.29 0.16 0.21 0.16 0.20 0.02 0.15 0.35 0.25 0.59 0.74 0.39 1.09 0.96 0.63 0.53 0.55 0.45 0.29 0.37 0.31 0.16 0.18 0.16 0.36 0.48 0.83 1.13 0.62 0.54 0.46 0.80 1.01 1.11 0.90 1.19 1.42 0.84 0.87 1.27 0.65 0.39 0.56 0.43 0.52 0.65 0.76 0.77 0.73 0.56 0.81 1.16 1.63 1.78 1.62 1.35 1.44 1.46 1.24 1.24 1.88 1.00 0.81 0.92 1.30 1.51 2.78
0.11 0.77 0.15 0.40 0.37 0.38 0.32 0.29 0.26 0.43 0.35 0.26 0.22 0.25 0.16 0.17 0.25 0.23 0.23 0.22 0.21 0.50 0.46 0.34 0.07 0.14 0.45 0.29 0.22 0.69 0.46 0.24 0.49 0.41 0.23 0.27 0.70 0.63 0.53 0.42 0.56 0.54 0.38 0.51 0.52 0.76 0.46 0.42 0.51 0.55 0.48 0.69 0.79 1.01 0.81 0.90 0.87 0.97 0.96 0.86 0.88 1.28 1.63 0.98 1.11 0.99 1.45 1.53 1.04 0.85 0.64 0.59 1.07 1.54 1.66 1.91 1.41 1.40 1.22 1.19 1.49 1.09 0.90 0.97 1.19 1.60
0.43 0.27 0.38 0.64 0.28 0.66 0.51 0.23 0.35 0.29 0.39 0.62 0.35 0.18 0.22 0.29 0.20 0.18 0.16 0.09 0.17 0.25 0.67 0.67 0.37 0.24 0.25 0.23 0.17 0.33 0.24 0.20 0.16 0.32 0.69 0.51 0.40 0.50 0.58 0.28 0.12 0.10 0.15 0.15 0.50 0.66 0.49 0.59 0.64 0.47 0.40 0.79 0.73 0.69 0.84 1.04 0.91 1.03 1.43 1.50 1.28 1.10 1.33 1.21 1.17 1.62 1.02 0.77 0.86 0.62 0.75 0.95 0.66 0.92 1.21 1.48 1.45 1.53 1.32 1.22 1.24 1.45 1.47 1.20 2.07 2.15
0.26 0.31 0.29 0.58 0.50 0.69 0.60 0.70 0.57 0.68 0.66 0.46 0.43 0.24 0.18 0.27 0.12 0.19 0.20 0.11 0.12 0.08 0.34 0.60 0.72 0.37 0.42 0.36 0.24 0.51 0.18 0.28 0.18 0.18 0.15 0.19 0.20 0.24 0.24 0.36 0.28 0.20 0.18 0.17 0.31 0.67 0.56 0.57 0.39 0.39 0.40 0.42 0.69 0.64 0.77 0.96 1.11 0.85 0.76 1.05 0.98 0.90 1.06 1.45 1.05 1.12 0.84 0.47 0.69 0.66 0.55 0.53 0.52 0.57 0.73 1.12 1.29 1.29 1.48 1.25 1.32 1.49 1.43 0.80 0.96 0.96
0.16 0.18 0.25 0.32 0.30 0.47 0.73 0.69 0.59 0.89 0.55 0.76 0.31 0.20 0.26 0.22 0.14 0.14 0.13 0.17 0.08 0.07 0.05 0.07 0.09 0.43 0.58 0.47 0.44 0.65 0.71 0.71 0.45 0.70 0.43 0.31 0.32 0.49 0.76 0.59 0.73 0.61 0.38 0.35 0.32 0.48 1.08 1.15 0.64 0.95 0.40 0.62 0.54 0.55 0.41 0.47 0.63 0.76 0.64 0.60 1.11 0.80 0.88 1.24 1.31 1.38 0.78 0.50 0.71 0.80 0.86 0.92 0.73 0.50 0.64 0.99 1.18 1.23 1.13 1.12 0.95 0.88 1.10 1.17 0.93 0.87
0.07 0.12 0.14 0.15 0.55 0.35 0.69 0.98 0.69 0.78 0.55 0.43 0.89 0.25 0.24 0.19 0.20 0.17 0.23 0.16 0.16 0.11 0.10 0.04 0.06 0.08 0.34 0.43 0.58 0.40 0.48 0.71 0.59 0.84 0.54 0.92 1.00 1.08 0.84 1.15 1.16 0.97 1.33 1.41 1.29 0.96 0.94 0.82 1.16 1.04 1.35 0.89 0.81 1.05 0.44 0.47 0.40 0.48 0.59 0.47 0.68 0.94 0.95 1.05 1.27 1.56 0.91 0.49 0.47 0.75 0.64 0.65 1.15 1.05 0.66 0.97 0.99 1.39 1.63 0.93 0.94 0.82 0.98 0.80 0.89 0.84
0.08 0.18 0.20 0.37 0.28 0.43 0.58 0.73 0.51 0.88 0.64 0.38 0.29 0.60 0.45 0.37 0.24 0.19 0.27 0.33 0.29 0.16 0.12 0.13 0.12 0.08 0.11 0.22 0.32 0.48 0.56 0.39 0.45 0.54 0.50 0.71 0.79 0.83 0.97 0.86 0.99 0.88 0.81 0.64 1.01 1.22 1.14 1.07 1.70 1.83 1.17 1.30 1.08 0.82 0.73 0.39 0.34 0.37 0.46 0.43 0.44 0.52 0.98 1.00 0.94 0.90 0.87 0.78 0.65 0.66 0.57 0.57 0.73 1.16 0.92 1.26 1.25 1.32 1.21 1.10 0.96 0.97 0.91 0.82 0.86 0.78
0.06 0.19 0.59 0.25 0.63 0.25 0.85 0.51 0.41 0.45 0.46 0.40 0.22 0.26 0.28 0.38 0.24 0.24 0.10 0.37 0.39 0.32 0.20 0.18 0.18 0.19 0.22 0.16 0.37 0.42 0.38 0.53 0.70 0.73 0.54 0.40 0.37 0.43 0.58 0.56 0.47 0.30 0.69 0.69 0.42 0.36 0.57 0.92 1.10 1.08 1.14 1.17 1.11 0.61 0.63 0.59 0.52 0.39 0.40 0.61 0.59 0.42 0.45 0.47 0.88 0.92 0.94 0.89 0.83 1.05 0.73 0.77 0.67 0.86 0.97 1.01 0.93 1.14 1.34 1.34 1.12 0.93 0.91 1.00 0.94 1.03
0.14 0.20 0.47 0.16 0.56 0.14 0.52 0.39 0.43 0.36 0.37 0.26 0.38 0.18 0.37 0.15 0.30 0.47 0.11 0.23 0.47 0.26 0.27 0.20 0.20 0.20 0.21 0.31 0.47 0.34 0.59 0.56 0.58 0.70 0.67 0.56 0.41 0.36 0.42 0.39 0.45 0.37 0.35 0.28 0.34 0.47 0.48 0.46 0.24 0.48 0.55 0.48 0.44 0.52 0.48 0.53 0.30 0.30 0.31 0.51 0.61 0.58 0.53 0.58 0.67 0.78 0.89 1.07 0.94 0.96 1.15 1.00 0.96 1.09 1.11 1.10 1.32 1.22 1.28 1.61 1.34 1.41 0.94 0.93 0.91 0.83
0.22 0.36 0.32 0.12 0.17 0.18 0.40 0.35 0.56 0.29 0.48 0.26 0.18 0.12 0.10 0.26 0.29 0.27 0.21 0.35 0.23 0.25 0.22 0.20 0.26 0.22 0.23 0.23 0.21 0.27 0.31 0.40 0.49 0.60 0.63 0.58 0.62 0.68 0.69 0.58 0.45 0.30 0.22 0.23 0.23 0.24 0.28 0.22 0.13 0.15 0.12 0.12 0.14 0.33 0.20 0.30 0.51 0.28 0.16 0.17 0.40 0.44 0.39 0.38 0.41 0.45 0.63 0.79 0.78 0.98 1.21 1.25 1.48 1.16 0.99 0.94 0.96 1.03 1.28 1.45 1.34 1.53 1.32 0.86 0.69 0.63
1.28 0.85 0.12 0.32 0.25 0.27 0.41 0.43 0.26 0.25 0.12 0.13 0.16 0.06 0.03 0.12 0.20 0.25 0.33 0.81 0.30 0.16 0.16 0.19 0.19 0.19 0.21 0.26 0.19 0.26 0.20 0.27 0.28 0.38 0.43 0.55 0.58 0.58 0.56 0.56 0.49 0.40 0.32 0.20 0.18 0.17 0.21 0.26 0.27 0.18 0.11 0.08 0.04 0.02 0.02 0.05 0.17 0.25 0.17 0.14 0.15 0.19 0.31 0.34 0.36 0.45 0.51 0.52 0.72 0.84 0.93 1.22 1.21 1.13 1.18 0.89 0.72 0.90 0.81 1.00 1.01 1.00 1.01 0.95 0.84 0.87
0.47 0.36 0.42 0.22 0.23 0.29 0.33 0.48 0.51 0.65 0.60 0.09 0.07 0.04 0.34 0.12 0.52 0.32 0.52 0.27 0.26 0.19 0.11 0.12 0.19 0.19 0.14 0.12 0.20 0.23 0.24 0.17 0.17 0.28 0.43 0.69 0.47 0.46 0.45 0.50 0.56 0.44 0.42 0.33 0.17 0.14 0.14 0.18 0.24 0.34 0.28 0.18 0.10 0.04 0.02 0.02 0.04 0.07 0.07 0.10 0.10 0.09 0.10 0.15 0.20 0.35 0.45 0.45 0.46 0.46 0.71 0.71 0.94 1.05 1.02 1.13 1.16 0.87 0.73 0.76 0.87 0.82 0.81 0.88 1.00 0.87
0.46 0.34 0.36 0.23 0.37 0.24 0.33 0.31 0.43 0.54 1.05 0.04 0.14 0.07 0.31 0.18 0.39 0.21 0.20 0.14 0.25 0.26 0.18 0.17 0.14 0.17 0.13 0.22 0.21 0.26 0.24 0.25 0.24 0.26 0.28 0.34 0.36 0.32 0.31 0.37 0.35 0.39 0.43 0.33 0.29 0.22 0.18 0.13 0.10 0.13 0.24 0.31 0.32 0.26 0.11 0.03 0.04 0.03 0.02 0.09 0.11 0.06 0.04 0.04 0.06 0.07 0.15 0.19 0.28 0.36 0.40 0.54 0.62 0.81 0.90 0.93 0.98 1.20 1.18 0.83 0.78 0.79 0.85 0.86 0.84 0.78
0.25 0.39 0.32 0.20 0.18 0.29 0.38 0.32 0.55 0.62 0.37 0.20 0.09 0.24 0.45 0.16 0.19 0.20 0.11 0.37 0.42 0.22 0.20 0.19 0.15 0.17 0.17 0.18 0.22 0.15 0.17 0.22 0.27 0.25 0.22 0.19 0.16 0.16 0.16 0.28 0.43 0.32 0.28 0.21 0.17 0.16 0.14 0.14 0.13 0.11 0.08 0.10 0.28 0.36 0.37 0.33 0.23 0.16 0.10 0.06 0.02 0.01 0.02 0.03 0.04 0.02 0.03 0.05 0.09 0.10 0.16 0.27 0.39 0.47 0.64 0.80 0.83 0.92 1.08 1.01 0.96 1.07 0.97 0.99 1.05 0.99
0.18 0.24 0.32 0.49 0.28 0.42 0.29 0.43 0.39 0.17 0.19 0.13 0.10 0.12 0.13 0.16 0.14 0.12 0.11 0.11 0.18 0.31 0.32 0.31 0.34 0.17 0.14 0.20 0.18 0.15 0.21 0.17 0.16 0.18 0.18 0.16 0.13 0.09 0.07 0.07 0.09 0.13 0.07 0.05 0.06 0.07 0.06 0.07 0.07 0.08 0.10 0.12 0.13 0.21 0.26 0.29 0.34 0.31 0.26 0.20 0.12 0.07 0.03 0.03 0.02 0.02 0.03 0.04 0.03 0.03 0.07 0.08 0.16 0.32 0.42 0.58 0.85 0.79 0.85 1.15 1.07 0.93 0.87 0.88 0.95 0.94
0.13 0.10 0.10 0.15 0.41 0.11 0.20 0.20 0.18 0.13 0.14 0.10 0.07 0.09 0.11 0.12 0.13 0.11 0.09 0.14 0.13 0.20 0.31 0.37 0.36 0.30 0.25 0.19 0.17 0.14 0.09 0.07 0.02 0.03 0.04 0.07 0.11 0.15 0.14 0.27 0.10 0.05 0.14 0.10 0.03 0.04 0.02 0.02 0.02 0.02 0.04 0.08 0.09 0.08 0.17 0.13 0.19 0.26 0.31 0.29 0.27 0.24 0.17 0.10 0.05 0.03 0.01 0.03 0.06 0.04 0.03 0.04 0.07 0.12 0.20 0.24 0.62 0.69 0.78 0.85 0.81 0.85 0.81 0.73 0.77 0.75
0.05 0.02 0.08 0.16 0.18 0.28 0.42 0.36 0.07 0.11 0.12 0.07 0.15 0.12 0.08 0.07 0.11 0.12 0.14 0.15 0.24 0.34 0.28 0.32 0.34 0.29 0.22 0.14 0.11 0.08 0.05 0.02 0.02 0.01 0.02 0.02 0.04 0.11 0.13 0.14 0.30 0.29 0.22 0.19 0.09 0.01 0.00 0.00 0.00 0.01 0.01 0.02 0.05 0.15 0.06 0.04 0.07 0.11 0.21 0.21 0.24 0.29 0.32 0.29 0.23 0.18 0.12 0.09 0.04 0.04 0.09 0.16 0.23 0.12 0.08 0.06 0.14 0.36 0.42 0.59 0.77 0.61 0.62 0.54 0.75 0.72
0.14 0.01 0.06 0.05 0.08 0.06 0.34 0.20 0.07 0.04 0.03 0.05 0.07 0.06 0.10 0.07 0.04 0.04 0.04 0.06 0.14 0.22 0.29 0.29 0.28 0.26 0.18 0.17 0.14 0.11 0.08 0.05 0.02 0.02 0.02 0.03 0.05 0.03 0.09 0.17 0.20 0.19 0.34 0.34 0.27 0.10 0.10 0.03 0.03 0.02 0.02 0.02 0.02 0.01 0.01 0.02 0.03 0.05 0.10 0.14 0.14 0.19 0.24 0.28 0.34 0.31 0.25 0.20 0.15 0.12 0.12 0.11 0.08 0.06 0.06 0.05 0.14 0.21 0.24 0.38 0.39 0.48 0.50 0.55 0.63 0.70
0.17 0.01 0.03 0.06 0.06 0.15 0.11 0.11 0.11 0.06 0.02 0.03 0.02 0.02 0.02 0.01 0.01 0.03 0.01 0.02 0.03 0.08 0.16 0.24 0.32 0.39 0.33 0.28 0.20 0.20 0.18 0.13 0.09 0.06 0.04 0.03 0.03 0.05 0.06 0.07 0.22 0.24 0.20 0.23 0.31 0.18 0.12 0.11 0.08 0.07 0.05 0.03 0.01 0.01 0.02 0.01 0.01 0.02 0.08 0.10 0.08 0.09 0.11 0.12 0.16 0.22 0.26 0.28 0.27 0.26 0.22 0.23 0.18 0.16 0.13 0.12 0.10 0.13 0.16 0.29 0.46 0.32 0.43 0.43 0.43 0.50
0.07 0.08 0.03 0.04 0.14 0.17 0.33 0.30 0.14 0.33 0.19 0.16 0.05 0.03 0.03 0.05 0.06 0.03 0.03 0.05 0.04 0.05 0.08 0.13 0.18 0.26 0.30 0.28 0.23 0.19 0.17 0.17 0.11 0.09 0.09 0.05 0.04 0.01 0.04 0.04 0.07 0.16 0.19 0.13 0.14 0.29 0.22 0.11 0.10 0.10 0.09 0.09 0.08 0.04 0.01 0.01 0.00 0.01 0.02 0.05 0.08 0.09 0.09 0.09 0.09 0.13 0.17 0.20 0.24 0.25 0.27 0.29 0.26 0.20 0.16 0.20 0.25 0.26 0.14 0.12 0.18 0.22 0.28 0.40 0.33 0.24
0.18 0.14 0.11 0.11 0.10 0.16 0.12 0.10 0.21 0.09 0.07 0.16 0.10 0.05 0.03 0.04 0.07 0.05 0.04 0.06 0.06 0.05 0.05 0.04 0.06 0.09 0.10 0.11 0.14 0.10 0.09 0.09 0.10 0.06 0.12 0.16 0.07 0.05 0.07 0.15 0.06 0.06 0.08 0.06 0.07 0.09 0.16 0.12 0.06 0.08 0.06 0.07 0.06 0.07 0.04 0.02 0.02 0.04 0.06 0.11 0.13 0.08 0.07 0.09 0.10 0.11 0.10 0.14 0.17 0.19 0.18 0.22 0.27 0.27 0.29 0.55 0.51 0.24 0.24 0.20 0.11 0.13 0.16 0.15 0.20 0.25